Location: Gand�
(15.0971°N, 12.6564°W)
Time: 15:22:39
(UTC+00:00)

Landsat 5 - Pass Details

Date: 07 August 2020
Orbit: 529 x 653 km, 98.2° (Epoch: 19 September)

Event Time Altitude Azimuth Distance (km) Brightness Sun altitude
Exits shadow 04:53:07 55° 354° (N) 640 3.6 -23.7°
Drops below altitude 10° 04:56:12 10° 349° (N) 1,793 6.1 -23.0°
Sets 04:58:20 0° 349° (N) 2,698 7.0 -22.6°
